Regional Weather Roundup
Issued by NWS

Home | Current Version | Previous Version | Graphics & Text | Print | Product List | Glossary On
Versions: 1 2 3 4 5 6 7 8 9 10 11 12 13 14 15 16 17 18 19 20 21 22 23 24 25 26 27 28 29 30 31 32 33 34 35 36 37 38 39 40 41 42 43 44 45 46 47 48 49 50
000
ASUS43 KLSX 221759
RWRMO

WEATHER SUMMARY FOR MISSOURI
NATIONAL WEATHER SERVICE SPRINGFIELD MO
100 PM CDT WED OCT 22 2014

NOTE: "FAIR" INDICATES FEW OR NO CLOUDS BELOW 12,000 FEET WITH NO
       SIGNIFICANT WEATHER AND/OR OBSTRUCTIONS TO VISIBILITY.
       CURRENT SKY AND/OR WEATHER CONDITIONS ARE NOT AVAILABLE FOR
       CHILLICOTHE AND FARMINGTON.

MOZ001>031-035>038-043-044-053-054-221900-
...NORTHERN AND WESTERN MISSOURI...

CITY           SKY/WX    TMP DP  RH WIND       PRES   REMARKS
KANSAS CTY INT FAIR      67  52  58 SE12      30.17F
6HR MIN TEMP:  53; 6HR MAX TEMP:  67;

KANSAS C DTWN  PTSUNNY   69  50  50 SE9       30.17F
6HR MIN TEMP:  55; 6HR MAX TEMP:  69;

LEE`S SUMMIT   PTSUNNY   65  49  56 SE9       30.19F
6HR MIN TEMP:  52; 6HR MAX TEMP:  65;

ST JOSEPH      FAIR      67  51  56 SE12      30.15F
6HR MIN TEMP:  53; 6HR MAX TEMP:  67;

KIRKSVILLE     FAIR      61  47  59 SE13      30.26F
6HR MIN TEMP:  39; 6HR MAX TEMP:  61;


$$
MOZ066>068-077>081-088>096-101>105-221900-
...SOUTHWEST MISSOURI...

CITY           SKY/WX    TMP DP  RH WIND       PRES   REMARKS
SPRINGFIELD      N/A     66  47  50 SE12      30.22F
6HR MIN TEMP:  50; 6HR MAX TEMP:  67; 6HR PCP: TRACE;

JOPLIN         FAIR      71  55  56 S6        30.19F
6HR MIN TEMP:  53; 6HR MAX TEMP:  71;


$$
MOZ032>034-039>042-045>050-055>058-069>072-221900-
...CENTRAL MISSOURI...

CITY           SKY/WX    TMP DP  RH WIND       PRES   REMARKS
COLUMBIA       FAIR      62  45  53 SE9       30.25F
6HR MIN TEMP:  42; 6HR MAX TEMP:  62;

JEFFERSON CITY FAIR      63  43  48 SE8       30.25F
6HR MIN TEMP:  43; 6HR MAX TEMP:  63;

ROLLA          FAIR      61  43  51 SE10      30.25F
6HR MIN TEMP:  41; 6HR MAX TEMP:  61;

SEDALIA        FAIR      68  49  50 S9        30.23F
6HR MIN TEMP:  46; 6HR MAX TEMP:  68;

OSAGE BEACH    FAIR      66  46  48 SE6       30.24F

$$
MOZ051-052-059>065-221900-
...EAST CENTRAL MISSOURI...

CITY           SKY/WX    TMP DP  RH WIND       PRES   REMARKS
ST LOUIS INTL  FAIR      59  43  55 E5        30.30F
6HR MIN TEMP:  43; 6HR MAX TEMP:  59;

SPIRIT OF STL  FAIR      59  43  55 SE5       30.28F
ST CHARLES     FAIR      59  44  57 CALM      30.29F
6HR MIN TEMP:  39; 6HR MAX TEMP:  59;


$$
MOZ072>076-082>087-097>100-106>115-221900-
...SOUTH CENTRAL AND SOUTHEAST MISSOURI...

CITY           SKY/WX    TMP DP  RH WIND       PRES   REMARKS
CAPE GIRARDEAU FAIR      62  44  51 NE9       30.28F
6HR MIN TEMP:  38; 6HR MAX TEMP:  62;

FARMINGTON     FAIR      59  43  55 E6        30.29F
6HR MIN TEMP:  37; 6HR MAX TEMP:  59;

POPLAR BLUFF   FAIR      62  40  44 VRB5      30.26F
6HR MIN TEMP:  44; 6HR MAX TEMP:  63;

WEST PLAINS    FAIR      61  44  53 SE7       30.27F
6HR MIN TEMP:  43; 6HR MAX TEMP:  61;


$$



USA.gov is the U.S. government's official web portal to all federal, state and local government web resources and services.